Location: Unspecified
(0.0000°N, 0.0000°E)
Time: 08:54:15
(UTC+00:00)

BEESAT 2 - Pass Details

Date: 18 May 2021
Orbit: 493 x 525 km, 64.9° (Epoch: 16 June)

Event Time Altitude Azimuth Distance (km) Brightness Sun altitude
Exits shadow 05:10:37 15° 244° (WSW) 1,431 ? -10.8°
Maximum altitude 05:12:56 26° 292° (WNW) 1,042 ? -10.2°
Drops below altitude 10° 05:16:12 10° 349° (N) 1,734 ? -9.5°
Sets 05:18:38 0° 3° (N) 2,623 ? -8.9°
